Flag for Switzerland Weather past 2 weeks in Steffisburg, Bern, Switzerland

Now
86 °F

Sunny.


Feels Like: 87 °F
Forecast: 66 / 95 °F
Wind: 6 mph from Northwest

Location: Bern / Belp

Current Time: Jul 4, 2015 at 12:09:28 PM

Latest Report: Jul 4, 2015 at 11:50 AM


Visibility: 10 mi

Pressure: 30.24 "Hg (28.32 "Hg at 582m altitude)

Humidity: 46%

Dew point: 63 °F

Location of SteffisburgLocation

Historic Weather in Steffisburg — Graph

°F

Steffisburg temperature yesterday

Maximum temperature yesterday: 95 °F (at 4:20 PM)
Minimum temperature yesterday: 63 °F (at 4:20 AM)
Average temperature yesterday: 79 °F

Past Weeks' High & Low Weather Summary

 TemperatureHumidityPressure
High95 °F (Jul 2, 5:50 PM)100% (Jun 20, 1:50 AM)30.30 "Hg (Jun 20, 1:50 AM)
Low43 °F (Jun 24, 4:50 AM)24% (Jun 26, 5:20 PM)29.77 "Hg (Jun 22, 9:20 PM)
Average67 °F69%30.13 "Hg
* Reported Jun 19 10:20 AM — Jul 4 10:50 AM, Steffisburg, Weather by CustomWeather, © 2015

Note: Actual official high and low records may vary slightly from our data, if they occured in-between our weather recording intervals... More about our weather records

Advertising

Steffisburg weather history for previous 24 hours

 ConditionsComfort  
Time TempWeatherWind HumidityBarometerVisibility
10:50 AM
Sat, Jul 4
84 °FSunny.2 mph51%30.24 "Hg10 mi
10:20 AM82 °FSunny.2 mph55%30.24 "Hg10 mi
9:50 AM81 °FSunny.1 mph51%30.24 "Hg10 mi
9:20 AM81 °FSunny.2 mph62%30.24 "Hg10 mi
8:50 AM79 °FPassing clouds.3 mph65%30.24 "HgN/A
8:20 AM75 °FSunny.1 mph74%30.24 "Hg10 mi
7:50 AM72 °FSunny.1 mph83%30.24 "Hg10 mi
7:20 AM68 °FSunny.2 mph88%30.24 "Hg10 mi
6:50 AM66 °FSunny.2 mph94%30.24 "Hg10 mi
6:20 AM63 °FClear.3 mph100%30.24 "Hg10 mi
5:50 AM64 °FClear.3 mph94%30.24 "Hg10 mi
5:20 AM64 °FMild.1 mph94%30.24 "Hg5 mi
4:50 AM64 °FMild.1 mph94%30.21 "Hg6 mi
4:20 AM66 °FPassing clouds.3 mph94%30.21 "HgN/A
3:50 AM66 °FClear.3 mph94%30.21 "Hg10 mi
3:20 AM66 °FClear.2 mph94%30.21 "Hg10 mi
2:50 AM66 °FClear.1 mph94%30.21 "Hg10 mi
2:20 AM68 °FClear.1 mph88%30.21 "Hg10 mi
1:50 AM68 °FClear.1 mph94%30.21 "Hg10 mi
1:20 AM70 °FClear.2 mph88%30.21 "Hg10 mi
12:50 AM72 °FClear.3 mph83%30.21 "Hg10 mi
12:20 AM72 °FClear.7 mph83%30.21 "Hg10 mi
11:50 PM
Fri, Jul 3
72 °FClear.6 mph83%30.21 "Hg10 mi
11:20 PM72 °FClear.5 mph83%30.21 "Hg10 mi
10:50 PM73 °FClear.3 mph83%30.21 "Hg10 mi
10:20 PM73 °FPassing clouds.3 mph83%30.21 "HgN/A
9:50 PM77 °FSunny.2 mph79%30.21 "Hg10 mi
9:20 PM81 °FSunny.1 mph70%30.18 "Hg10 mi
8:50 PM86 °FSunny.2 mph59%30.18 "Hg10 mi
8:20 PM90 °FSunny.3 mph46%30.18 "Hg10 mi
7:50 PM93 °FSunny.3 mph44%30.18 "Hg10 mi
7:20 PM95 °FSunny.1 mph32%30.18 "Hg10 mi
6:50 PM93 °FSunny.2 mph32%30.18 "Hg10 mi
6:20 PM93 °FSunny.2 mph32%30.18 "Hg10 mi
5:50 PM95 °FSunny.3 mph36%30.21 "Hg10 mi
5:20 PM93 °FPassing clouds.3 mph32%30.21 "HgN/A
4:50 PM93 °FPassing clouds.6 mph34%30.21 "HgN/A
4:20 PM95 °FPassing clouds.3 mph32%30.21 "HgN/A
3:50 PM93 °FSunny.5 mph34%30.24 "Hg10 mi
3:20 PM91 °FSunny.6 mph38%30.24 "Hg10 mi
2:50 PM91 °FPassing clouds.6 mph41%30.24 "HgN/A
2:20 PM91 °FSunny.6 mph41%30.24 "Hg10 mi
1:50 PM91 °FSunny.6 mph41%30.24 "Hg10 mi
1:20 PM90 °FSunny.3 mph41%30.24 "Hg10 mi
12:50 PM90 °FSunny.2 mph43%30.24 "Hg10 mi
12:20 PM86 °FSunny.2 mph46%30.27 "Hg10 mi
Weather by CustomWeather, © 2015

See weather overviewHow to use our weather pages